SUMZM LGIR-EPPO

Flight info

Callsign SUMZM
Flight time N/A
Altitude 26000
Route EPALO M749 DIRMI UM749 MIL/N0197F240 M749 ATV/N0196F260 UM749 SKP UL617 TSL/N0195F280 UL617 MAKED L617 RAXAD DCT PARAK DCT BILNA DCT REGLI Z159 NILPU
Aircraft PC12/L-SDFGRWY/S

Departure

Time N/A
Airport Heraklion International Nikos Kazantzakis Airport (LGIR)

Arrival

Time 2026-04-28 21:51
Airport Poznań-Ławica Airport (EPPO)
Time Latitude Longitude Altitude Speed Heading
2026-04-28 18:46 44.31625 21.16181 28083 ft 198 kts 337°
2026-04-28 18:46 44.32907 21.15465 28087 ft 198 kts 337°
2026-04-28 18:46 44.34189 21.14749 28084 ft 199 kts 337°
2026-04-28 18:47 44.35474 21.14031 28085 ft 199 kts 337°
2026-04-28 18:47 44.36742 21.13323 28087 ft 199 kts 337°
2026-04-28 18:47 44.38026 21.12605 28090 ft 199 kts 337°
2026-04-28 18:47 44.39312 21.11886 28089 ft 199 kts 337°
2026-04-28 18:48 44.40609 21.11159 28090 ft 198 kts 337°
2026-04-28 18:48 44.41890 21.10442 28093 ft 198 kts 338°
2026-04-28 18:48 44.43175 21.09722 28091 ft 198 kts 338°
2026-04-28 18:48 44.44436 21.09015 28091 ft 198 kts 338°
2026-04-28 18:49 44.45712 21.08300 28091 ft 198 kts 338°
2026-04-28 18:49 44.46140 21.08060 28090 ft 198 kts 338°
2026-04-28 18:49 44.48261 21.06870 28095 ft 197 kts 338°
2026-04-28 18:49 44.49540 21.06151 28092 ft 197 kts 338°
2026-04-28 18:50 44.50811 21.05437 28092 ft 197 kts 338°
2026-04-28 18:50 44.52081 21.04723 28093 ft 197 kts 338°
2026-04-28 18:50 44.53352 21.04009 28092 ft 196 kts 338°
2026-04-28 18:50 44.54624 21.03293 28094 ft 196 kts 338°
2026-04-28 18:51 44.55896 21.02577 28094 ft 196 kts 338°
2026-04-28 18:51 44.57160 21.01865 28096 ft 196 kts 338°
2026-04-28 18:51 44.58423 21.01154 28095 ft 196 kts 338°
2026-04-28 18:51 44.59688 21.00441 28098 ft 196 kts 338°
2026-04-28 18:52 44.60956 20.99726 28096 ft 196 kts 338°
2026-04-28 18:52 44.62221 20.99012 28095 ft 196 kts 338°
2026-04-28 18:52 44.63486 20.98298 28096 ft 196 kts 338°
2026-04-28 18:52 44.64747 20.97586 28099 ft 196 kts 338°
2026-04-28 18:53 44.66008 20.96873 28097 ft 195 kts 338°
2026-04-28 18:53 44.67270 20.96160 28097 ft 195 kts 338°
2026-04-28 18:53 44.68514 20.95456 28098 ft 195 kts 338°
2026-04-28 18:53 44.69775 20.94743 28100 ft 195 kts 338°
2026-04-28 18:54 44.71033 20.94031 28100 ft 195 kts 338°
2026-04-28 18:54 44.72290 20.93319 28100 ft 195 kts 339°
2026-04-28 18:54 44.73544 20.92609 28101 ft 195 kts 339°
2026-04-28 18:54 44.74801 20.91896 28103 ft 194 kts 339°
2026-04-28 18:55 44.76050 20.91188 28102 ft 194 kts 339°
2026-04-28 18:55 44.76882 20.90716 28102 ft 194 kts 339°
2026-04-28 18:55 44.78554 20.89767 28101 ft 194 kts 339°
2026-04-28 18:55 44.79802 20.89058 28102 ft 194 kts 339°
2026-04-28 18:56 44.81053 20.88347 28102 ft 193 kts 339°
2026-04-28 18:56 44.82300 20.87639 28106 ft 193 kts 339°
2026-04-28 18:56 44.83545 20.86930 28103 ft 193 kts 339°
2026-04-28 18:56 44.84791 20.86221 28102 ft 193 kts 339°
2026-04-28 18:57 44.86039 20.85511 28102 ft 193 kts 339°
2026-04-28 18:57 44.87281 20.84804 28106 ft 192 kts 339°
2026-04-28 18:57 44.88520 20.84097 28103 ft 193 kts 339°
2026-04-28 18:57 44.89762 20.83390 28104 ft 192 kts 339°
2026-04-28 18:58 44.91001 20.82683 28106 ft 192 kts 339°
2026-04-28 18:58 44.92240 20.81976 28105 ft 192 kts 339°
2026-04-28 18:58 44.93462 20.81278 28107 ft 192 kts 339°
2026-04-28 18:58 44.94702 20.80570 28109 ft 192 kts 339°
2026-04-28 18:59 44.95937 20.79865 28109 ft 191 kts 339°
2026-04-28 18:59 44.97170 20.79160 28109 ft 191 kts 339°
2026-04-28 18:59 44.98403 20.78455 28110 ft 191 kts 339°
2026-04-28 18:59 44.99636 20.77749 28111 ft 191 kts 339°
2026-04-28 19:00 45.00869 20.77043 28110 ft 191 kts 339°
2026-04-28 19:00 45.02098 20.76340 28112 ft 191 kts 339°
2026-04-28 19:00 45.03326 20.75636 28111 ft 191 kts 339°
2026-04-28 19:00 45.04562 20.74927 28115 ft 191 kts 339°
2026-04-28 19:01 45.05775 20.74232 28113 ft 190 kts 339°
2026-04-28 19:01 45.07010 20.73523 28114 ft 190 kts 339°
2026-04-28 19:01 45.08236 20.72820 28115 ft 190 kts 339°
2026-04-28 19:01 45.09464 20.72114 28113 ft 190 kts 339°
2026-04-28 19:02 45.10691 20.71409 28114 ft 190 kts 339°
2026-04-28 19:02 45.11916 20.70705 28112 ft 190 kts 339°
2026-04-28 19:02 45.13147 20.69997 28113 ft 190 kts 339°
2026-04-28 19:02 45.14370 20.69293 28117 ft 190 kts 339°
2026-04-28 19:03 45.15583 20.68595 28111 ft 190 kts 339°
2026-04-28 19:03 45.16806 20.67891 28116 ft 190 kts 339°
2026-04-28 19:03 45.18029 20.67188 28186 ft 188 kts 329°
2026-04-28 19:03 45.19249 20.66486 28118 ft 188 kts 328°
2026-04-28 19:04 45.20449 20.65793 28116 ft 186 kts 328°
2026-04-28 19:04 45.21645 20.65103 28116 ft 184 kts 328°
2026-04-28 19:04 45.22825 20.64421 28123 ft 183 kts 328°
2026-04-28 19:04 45.23997 20.63744 28121 ft 182 kts 328°
2026-04-28 19:05 45.25165 20.63069 28127 ft 181 kts 328°
2026-04-28 19:05 45.26330 20.62395 28125 ft 180 kts 328°
2026-04-28 19:05 45.27101 20.61950 28128 ft 180 kts 328°
2026-04-28 19:05 45.28255 20.61281 28127 ft 179 kts 328°
2026-04-28 19:06 45.29797 20.60389 28129 ft 179 kts 328°
2026-04-28 19:06 45.30564 20.59945 28134 ft 179 kts 328°
2026-04-28 19:06 45.31712 20.59280 28132 ft 178 kts 328°
2026-04-28 19:06 45.32861 20.58614 28131 ft 178 kts 328°
2026-04-28 19:07 45.34009 20.57949 28129 ft 178 kts 328°
2026-04-28 19:07 45.35161 20.57281 28132 ft 178 kts 328°
2026-04-28 19:07 45.36305 20.56617 28130 ft 178 kts 328°
2026-04-28 19:07 45.37452 20.55951 28130 ft 178 kts 328°
2026-04-28 19:08 45.38587 20.55292 28132 ft 178 kts 328°
2026-04-28 19:08 45.39733 20.54626 28130 ft 178 kts 328°
2026-04-28 19:08 45.40881 20.53959 28131 ft 178 kts 328°
2026-04-28 19:08 45.42027 20.53292 28134 ft 178 kts 328°
2026-04-28 19:09 45.43177 20.52623 28132 ft 178 kts 328°
2026-04-28 19:09 45.44323 20.51956 28131 ft 178 kts 328°
2026-04-28 19:09 45.45472 20.51287 28135 ft 178 kts 328°
2026-04-28 19:09 45.46624 20.50616 28132 ft 178 kts 328°
2026-04-28 19:10 45.47755 20.49957 28130 ft 178 kts 328°
2026-04-28 19:10 45.48918 20.49279 28130 ft 178 kts 328°
2026-04-28 19:10 45.50069 20.48607 28132 ft 178 kts 328°
2026-04-28 19:10 45.51200 20.47948 28130 ft 178 kts 328°
2026-04-28 19:11 45.52359 20.47271 28135 ft 178 kts 328°
2026-04-28 19:11 45.53493 20.46609 28137 ft 178 kts 328°
2026-04-28 19:11 45.54642 20.45937 28130 ft 178 kts 328°
2026-04-28 19:11 45.55785 20.45269 28134 ft 178 kts 328°
2026-04-28 19:12 45.56932 20.44598 28131 ft 178 kts 328°
2026-04-28 19:12 45.58082 20.43926 28133 ft 178 kts 328°
2026-04-28 19:12 45.59228 20.43255 28133 ft 178 kts 328°
2026-04-28 19:12 45.60374 20.42584 28135 ft 178 kts 328°
2026-04-28 19:13 45.61524 20.41910 28136 ft 178 kts 328°
2026-04-28 19:13 45.62670 20.41239 28135 ft 178 kts 328°
2026-04-28 19:13 45.63816 20.40566 28132 ft 178 kts 328°
2026-04-28 19:13 45.64965 20.39892 28129 ft 178 kts 328°
2026-04-28 19:14 45.66111 20.39219 28135 ft 178 kts 328°
2026-04-28 19:14 45.67260 20.38545 28134 ft 178 kts 328°
2026-04-28 19:14 45.68406 20.37872 28134 ft 178 kts 328°
2026-04-28 19:14 45.69532 20.37210 28113 ft 175 kts 336°
2026-04-28 19:15 45.70668 20.36542 28116 ft 178 kts 336°
2026-04-28 19:15 45.71819 20.35864 28120 ft 180 kts 335°
2026-04-28 19:15 45.72990 20.35176 28124 ft 182 kts 335°
2026-04-28 19:15 45.73765 20.34720 28124 ft 182 kts 335°
2026-04-28 19:16 45.75328 20.33799 28126 ft 184 kts 335°
2026-04-28 19:16 45.76516 20.33099 28127 ft 185 kts 335°
2026-04-28 19:16 45.77704 20.32399 28129 ft 185 kts 335°
2026-04-28 19:16 45.78897 20.31696 28130 ft 185 kts 335°
2026-04-28 19:17 45.80096 20.30988 28130 ft 186 kts 335°
2026-04-28 19:17 45.81291 20.30282 28131 ft 186 kts 335°
2026-04-28 19:17 45.82484 20.29578 28131 ft 186 kts 335°
2026-04-28 19:17 45.83688 20.28866 28129 ft 186 kts 335°
2026-04-28 19:18 45.84875 20.28165 28131 ft 186 kts 335°
2026-04-28 19:18 45.86072 20.27457 28132 ft 186 kts 335°
2026-04-28 19:18 45.87289 20.26736 28133 ft 186 kts 334°
2026-04-28 19:18 45.88488 20.26027 28131 ft 186 kts 334°
2026-04-28 19:19 45.89674 20.25324 28132 ft 186 kts 334°
2026-04-28 19:19 45.90868 20.24617 28131 ft 186 kts 334°
2026-04-28 19:19 45.92069 20.23905 28129 ft 186 kts 334°
2026-04-28 19:19 45.93266 20.23195 28131 ft 186 kts 334°
2026-04-28 19:20 45.94463 20.22485 28129 ft 186 kts 334°
2026-04-28 19:20 45.95658 20.21775 28133 ft 186 kts 334°
2026-04-28 19:20 45.96852 20.21066 28135 ft 186 kts 334°
2026-04-28 19:20 45.98038 20.20361 28132 ft 186 kts 334°
2026-04-28 19:21 45.99233 20.19651 28129 ft 186 kts 334°
2026-04-28 19:21 46.00424 20.18942 28133 ft 185 kts 334°
2026-04-28 19:21 46.01620 20.18231 28136 ft 185 kts 334°
2026-04-28 19:21 46.02816 20.17519 28135 ft 185 kts 334°
2026-04-28 19:22 46.04005 20.16810 28137 ft 185 kts 334°
2026-04-28 19:22 46.04793 20.16341 28135 ft 185 kts 334°
2026-04-28 19:22 46.06389 20.15389 28133 ft 185 kts 333°
2026-04-28 19:22 46.07579 20.14679 28134 ft 185 kts 333°
2026-04-28 19:23 46.08773 20.13967 28136 ft 185 kts 333°
2026-04-28 19:23 46.09963 20.13257 28139 ft 185 kts 333°
2026-04-28 19:23 46.11150 20.12548 28137 ft 185 kts 333°
2026-04-28 19:23 46.12326 20.11845 28134 ft 185 kts 333°
2026-04-28 19:24 46.13531 20.11124 28134 ft 185 kts 333°
2026-04-28 19:24 46.14719 20.10414 28135 ft 185 kts 333°
2026-04-28 19:24 46.15888 20.09714 28135 ft 185 kts 333°
2026-04-28 19:24 46.17099 20.09081 28134 ft 185 kts 337°
2026-04-28 19:25 46.18318 20.08499 28136 ft 185 kts 336°
2026-04-28 19:25 46.19540 20.07906 28136 ft 185 kts 336°
2026-04-28 19:25 46.20760 20.07320 28138 ft 185 kts 336°
2026-04-28 19:25 46.21991 20.06732 28135 ft 185 kts 336°
2026-04-28 19:26 46.23212 20.06148 28138 ft 185 kts 336°
2026-04-28 19:26 46.24430 20.05564 28136 ft 185 kts 336°
2026-04-28 19:26 46.25656 20.04977 28133 ft 185 kts 336°
2026-04-28 19:26 46.26874 20.04393 28130 ft 185 kts 336°
2026-04-28 19:27 46.28097 20.03806 28137 ft 185 kts 336°
2026-04-28 19:27 46.29323 20.03217 28137 ft 185 kts 336°
2026-04-28 19:27 46.30539 20.02634 28139 ft 185 kts 336°
2026-04-28 19:27 46.31749 20.02052 28134 ft 185 kts 335°
2026-04-28 19:28 46.32971 20.01465 28139 ft 185 kts 335°
2026-04-28 19:28 46.34186 20.00881 28138 ft 184 kts 335°
2026-04-28 19:28 46.35405 20.00295 28140 ft 184 kts 335°
2026-04-28 19:28 46.36620 19.99710 28139 ft 184 kts 335°
2026-04-28 19:29 46.37833 19.99125 28138 ft 184 kts 335°
2026-04-28 19:29 46.38657 19.98729 28140 ft 184 kts 335°
2026-04-28 19:29 46.40270 19.97951 28144 ft 184 kts 335°
2026-04-28 19:29 46.41488 19.97364 28141 ft 184 kts 335°
2026-04-28 19:30 46.42705 19.96777 28140 ft 184 kts 335°
2026-04-28 19:30 46.43923 19.96189 28142 ft 184 kts 335°
2026-04-28 19:30 46.45141 19.95601 28138 ft 184 kts 335°
2026-04-28 19:30 46.46351 19.95016 28137 ft 184 kts 335°
2026-04-28 19:31 46.47555 19.94434 28138 ft 184 kts 335°
2026-04-28 19:31 46.48785 19.93839 28134 ft 184 kts 335°
2026-04-28 19:31 46.49977 19.93263 28144 ft 184 kts 334°
2026-04-28 19:31 46.51193 19.92674 28140 ft 184 kts 334°
2026-04-28 19:32 46.52406 19.92086 28140 ft 184 kts 334°
2026-04-28 19:32 46.53615 19.91500 28140 ft 184 kts 334°
2026-04-28 19:32 46.54834 19.90910 28143 ft 184 kts 334°
2026-04-28 19:32 46.56048 19.90321 28141 ft 183 kts 334°
2026-04-28 19:33 46.57259 19.89733 28141 ft 183 kts 334°
2026-04-28 19:33 46.58460 19.89150 28138 ft 183 kts 334°
2026-04-28 19:33 46.59684 19.88556 28138 ft 184 kts 334°
2026-04-28 19:33 46.60899 19.87965 28141 ft 183 kts 334°
2026-04-28 19:34 46.62095 19.87384 28141 ft 183 kts 334°
2026-04-28 19:34 46.63309 19.86794 28141 ft 183 kts 334°
2026-04-28 19:34 46.64515 19.86207 28138 ft 183 kts 334°
2026-04-28 19:34 46.65727 19.85617 28137 ft 183 kts 334°
2026-04-28 19:35 46.66935 19.85028 28140 ft 183 kts 334°
2026-04-28 19:35 46.68142 19.84440 28142 ft 183 kts 334°
2026-04-28 19:35 46.69331 19.83861 28141 ft 183 kts 333°
2026-04-28 19:35 46.70548 19.83267 28140 ft 183 kts 333°
2026-04-28 19:36 46.71752 19.82679 28140 ft 182 kts 333°
2026-04-28 19:36 46.72943 19.82098 28143 ft 182 kts 333°
2026-04-28 19:36 46.74143 19.81512 28139 ft 182 kts 333°
2026-04-28 19:36 46.75361 19.80917 28135 ft 182 kts 333°
2026-04-28 19:37 46.76562 19.80330 28132 ft 182 kts 333°
2026-04-28 19:37 46.77357 19.79941 28141 ft 182 kts 333°
2026-04-28 19:37 46.78957 19.79158 28139 ft 181 kts 333°
2026-04-28 19:37 46.80139 19.78579 28145 ft 181 kts 333°
2026-04-28 19:38 46.81336 19.77993 28137 ft 181 kts 333°
2026-04-28 19:38 46.82526 19.77410 28142 ft 181 kts 333°
2026-04-28 19:38 46.83723 19.76823 28141 ft 181 kts 333°
2026-04-28 19:38 46.84915 19.76238 28135 ft 181 kts 333°
2026-04-28 19:39 46.86104 19.75655 28139 ft 180 kts 333°
2026-04-28 19:39 46.87294 19.75070 28135 ft 180 kts 332°
2026-04-28 19:39 46.88486 19.74485 28136 ft 181 kts 332°
2026-04-28 19:39 46.89675 19.73901 28133 ft 180 kts 332°
2026-04-28 19:40 46.90865 19.73316 28134 ft 180 kts 332°
2026-04-28 19:40 46.92062 19.72727 28141 ft 180 kts 332°
2026-04-28 19:40 46.93250 19.72142 28137 ft 180 kts 332°
2026-04-28 19:40 46.94440 19.71556 28141 ft 180 kts 332°
2026-04-28 19:41 46.95612 19.70979 28141 ft 180 kts 332°
2026-04-28 19:41 46.96801 19.70393 28136 ft 180 kts 332°
2026-04-28 19:41 46.97987 19.69808 28139 ft 180 kts 332°
2026-04-28 19:41 46.99178 19.69221 28136 ft 180 kts 332°
2026-04-28 19:42 47.00362 19.68637 28138 ft 180 kts 332°
2026-04-28 19:42 47.01545 19.68053 28139 ft 180 kts 332°
2026-04-28 19:42 47.02737 19.67464 28136 ft 180 kts 332°
2026-04-28 19:42 47.03521 19.67077 28136 ft 179 kts 332°
2026-04-28 19:43 47.05109 19.66292 28137 ft 179 kts 332°
2026-04-28 19:43 47.06274 19.65715 28141 ft 179 kts 332°
2026-04-28 19:43 47.07466 19.65125 28137 ft 179 kts 332°
2026-04-28 19:43 47.08635 19.64547 28137 ft 179 kts 332°
2026-04-28 19:44 47.09815 19.63962 28138 ft 179 kts 332°
2026-04-28 19:44 47.10988 19.63381 28141 ft 178 kts 331°
2026-04-28 19:44 47.12162 19.62799 28139 ft 178 kts 331°
2026-04-28 19:44 47.13339 19.62215 28144 ft 178 kts 331°
2026-04-28 19:45 47.14508 19.61635 28143 ft 177 kts 331°
2026-04-28 19:45 47.15676 19.61055 28146 ft 177 kts 331°
2026-04-28 19:45 47.16846 19.60474 28142 ft 177 kts 331°
2026-04-28 19:45 47.18016 19.59892 28144 ft 177 kts 331°
2026-04-28 19:46 47.19180 19.59314 28149 ft 176 kts 331°
2026-04-28 19:46 47.20337 19.58738 28147 ft 177 kts 331°
2026-04-28 19:46 47.21497 19.58161 28144 ft 177 kts 331°
2026-04-28 19:46 47.22664 19.57579 28144 ft 177 kts 331°
2026-04-28 19:47 47.23824 19.57002 28145 ft 176 kts 331°
2026-04-28 19:47 47.24992 19.56420 28147 ft 176 kts 331°
2026-04-28 19:47 47.26153 19.55841 28137 ft 176 kts 331°
2026-04-28 19:47 47.27315 19.55261 28141 ft 176 kts 331°
2026-04-28 19:48 47.28476 19.54682 28142 ft 176 kts 331°
2026-04-28 19:48 47.29619 19.54111 28142 ft 176 kts 331°
2026-04-28 19:48 47.30778 19.53532 28139 ft 176 kts 330°
2026-04-28 19:48 47.31933 19.52955 28144 ft 176 kts 330°
2026-04-28 19:49 47.33096 19.52374 28146 ft 175 kts 330°
2026-04-28 19:49 47.34251 19.51796 28146 ft 175 kts 330°
2026-04-28 19:49 47.35406 19.51217 28143 ft 175 kts 330°
2026-04-28 19:49 47.36561 19.50639 28141 ft 175 kts 330°
2026-04-28 19:50 47.38869 19.49483 28139 ft 175 kts 330°
2026-04-28 19:50 47.40021 19.48906 28135 ft 175 kts 330°
2026-04-28 19:50 47.41173 19.48328 28150 ft 175 kts 329°
2026-04-28 19:51 47.41940 19.47943 28143 ft 175 kts 329°
2026-04-28 19:51 47.43086 19.47369 28139 ft 174 kts 329°
2026-04-28 19:51 47.44231 19.46794 28139 ft 173 kts 329°
2026-04-28 19:51 47.45369 19.46222 28136 ft 172 kts 329°
2026-04-28 19:52 47.46502 19.45653 28137 ft 172 kts 329°
2026-04-28 19:52 47.47631 19.45084 28142 ft 172 kts 329°
2026-04-28 19:52 47.48767 19.44513 28138 ft 171 kts 329°
2026-04-28 19:52 47.49890 19.43947 28138 ft 171 kts 329°
2026-04-28 19:53 47.51014 19.43381 28143 ft 171 kts 329°
2026-04-28 19:53 47.52131 19.42818 28139 ft 171 kts 329°
2026-04-28 19:53 47.53253 19.42252 28140 ft 171 kts 329°
2026-04-28 19:53 47.54379 19.41684 28140 ft 171 kts 329°
2026-04-28 19:54 47.55506 19.41116 28141 ft 171 kts 329°
2026-04-28 19:54 47.56639 19.40544 28138 ft 171 kts 329°
2026-04-28 19:54 47.57765 19.39976 28144 ft 171 kts 329°
2026-04-28 19:54 47.58893 19.39406 28144 ft 171 kts 329°
2026-04-28 19:55 47.60016 19.38838 28143 ft 171 kts 329°
2026-04-28 19:55 47.61143 19.38268 28141 ft 171 kts 329°
2026-04-28 19:55 47.62269 19.37699 28147 ft 171 kts 329°
2026-04-28 19:55 47.63389 19.37132 28146 ft 171 kts 329°
2026-04-28 19:56 47.64514 19.36563 28154 ft 170 kts 329°
2026-04-28 19:56 47.65644 19.35989 28142 ft 171 kts 329°
2026-04-28 19:56 47.66769 19.35419 28146 ft 171 kts 329°
2026-04-28 19:56 47.67896 19.34848 28147 ft 171 kts 329°
2026-04-28 19:57 47.69006 19.34286 28152 ft 171 kts 329°
2026-04-28 19:57 47.70131 19.33714 28154 ft 171 kts 329°
2026-04-28 19:57 47.71257 19.33142 28151 ft 171 kts 329°
2026-04-28 19:57 47.72383 19.32570 28155 ft 171 kts 329°
2026-04-28 19:58 47.73515 19.31995 28153 ft 172 kts 329°
2026-04-28 19:58 47.74645 19.31420 28157 ft 172 kts 329°
2026-04-28 19:58 47.75784 19.30841 28155 ft 173 kts 329°
2026-04-28 19:58 47.76927 19.30260 28157 ft 173 kts 329°
2026-04-28 19:59 47.78066 19.29680 28155 ft 173 kts 329°
2026-04-28 19:59 47.79195 19.29105 28156 ft 174 kts 329°
2026-04-28 19:59 47.80337 19.28523 28156 ft 173 kts 329°
2026-04-28 19:59 47.81471 19.27945 28160 ft 173 kts 329°
2026-04-28 20:00 47.82613 19.27362 28154 ft 173 kts 329°
2026-04-28 20:00 47.83749 19.26782 28159 ft 173 kts 329°
2026-04-28 20:00 47.84889 19.26200 28162 ft 173 kts 329°
2026-04-28 20:00 47.86036 19.25614 28155 ft 174 kts 329°
2026-04-28 20:01 47.87177 19.25032 28158 ft 173 kts 329°
2026-04-28 20:01 47.88307 19.24454 28160 ft 174 kts 329°
2026-04-28 20:01 47.89468 19.23859 28154 ft 175 kts 329°
2026-04-28 20:01 47.90622 19.23269 28160 ft 175 kts 329°
2026-04-28 20:02 47.91775 19.22679 28160 ft 175 kts 329°
2026-04-28 20:02 47.92935 19.22085 28158 ft 176 kts 329°
2026-04-28 20:02 47.94091 19.21493 28160 ft 175 kts 329°
2026-04-28 20:02 47.95230 19.20909 28161 ft 175 kts 329°
2026-04-28 20:03 47.96394 19.20312 28159 ft 175 kts 329°
2026-04-28 20:03 47.97534 19.19727 28164 ft 175 kts 329°
2026-04-28 20:03 47.98687 19.19135 28159 ft 175 kts 329°
2026-04-28 20:03 47.99836 19.18544 28160 ft 175 kts 329°
2026-04-28 20:04 48.00989 19.17952 28161 ft 175 kts 329°
2026-04-28 20:04 48.02139 19.17360 28164 ft 175 kts 329°
2026-04-28 20:04 48.03287 19.16769 28169 ft 175 kts 329°
2026-04-28 20:04 48.04449 19.16171 28163 ft 176 kts 329°
2026-04-28 20:05 48.05613 19.15572 28161 ft 176 kts 329°
2026-04-28 20:05 48.06767 19.14978 28166 ft 176 kts 329°
2026-04-28 20:05 48.07912 19.14388 28165 ft 176 kts 329°
2026-04-28 20:05 48.09070 19.13791 28164 ft 176 kts 329°
2026-04-28 20:06 48.10227 19.13194 28165 ft 176 kts 329°
2026-04-28 20:06 48.11386 19.12595 28166 ft 176 kts 329°
2026-04-28 20:06 48.12548 19.11995 28167 ft 177 kts 329°
2026-04-28 20:06 48.13705 19.11398 28166 ft 176 kts 329°
2026-04-28 20:07 48.14870 19.10795 28161 ft 177 kts 330°
2026-04-28 20:07 48.15657 19.10389 28163 ft 177 kts 329°
2026-04-28 20:07 48.17196 19.09593 28166 ft 176 kts 329°
2026-04-28 20:07 48.18362 19.08989 28166 ft 176 kts 329°
2026-04-28 20:08 48.19524 19.08387 28167 ft 176 kts 329°
2026-04-28 20:08 48.20684 19.07786 28171 ft 177 kts 329°
2026-04-28 20:08 48.21852 19.07180 28171 ft 178 kts 329°
2026-04-28 20:08 48.23017 19.06577 28168 ft 177 kts 329°
2026-04-28 20:09 48.24179 19.05974 28174 ft 177 kts 329°
2026-04-28 20:09 48.25336 19.05373 28171 ft 177 kts 329°
2026-04-28 20:09 48.26497 19.04770 28173 ft 177 kts 329°
2026-04-28 20:09 48.27669 19.04161 28174 ft 178 kts 329°
2026-04-28 20:10 48.28839 19.03553 28169 ft 178 kts 329°
2026-04-28 20:10 48.30009 19.02945 28172 ft 177 kts 329°
2026-04-28 20:10 48.31177 19.02337 28174 ft 177 kts 329°
2026-04-28 20:10 48.32340 19.01732 28177 ft 177 kts 329°
2026-04-28 20:11 48.33501 19.01127 28183 ft 176 kts 329°
2026-04-28 20:11 48.34667 19.00518 28180 ft 177 kts 329°
2026-04-28 20:11 48.35830 18.99912 28180 ft 177 kts 329°
2026-04-28 20:11 48.36988 18.99309 28179 ft 176 kts 329°
2026-04-28 20:12 48.38140 18.98708 28185 ft 175 kts 329°
2026-04-28 20:12 48.39297 18.98104 28186 ft 175 kts 329°
2026-04-28 20:12 48.40449 18.97501 28181 ft 175 kts 329°
2026-04-28 20:12 48.41212 18.97102 28181 ft 176 kts 329°
2026-04-28 20:13 48.42766 18.96290 28188 ft 176 kts 329°
2026-04-28 20:13 48.43908 18.95692 28188 ft 177 kts 329°
2026-04-28 20:13 48.45072 18.95083 28185 ft 177 kts 329°
2026-04-28 20:13 48.46240 18.94472 28187 ft 177 kts 329°
2026-04-28 20:14 48.47402 18.93863 28184 ft 177 kts 329°
2026-04-28 20:14 48.48573 18.93250 28188 ft 177 kts 329°
2026-04-28 20:14 48.49738 18.92638 28187 ft 177 kts 329°
2026-04-28 20:14 48.50887 18.92036 28184 ft 177 kts 329°
2026-04-28 20:15 48.52050 18.91426 28190 ft 177 kts 329°
2026-04-28 20:15 48.53212 18.90814 28188 ft 177 kts 329°
2026-04-28 20:15 48.54396 18.90192 28194 ft 177 kts 329°
2026-04-28 20:15 48.55545 18.89589 28197 ft 177 kts 329°
2026-04-28 20:16 48.56710 18.88976 28191 ft 177 kts 329°
2026-04-28 20:16 48.57878 18.88361 28196 ft 178 kts 329°
2026-04-28 20:16 48.59044 18.87747 28194 ft 178 kts 329°
2026-04-28 20:16 48.60214 18.87132 28198 ft 177 kts 329°
2026-04-28 20:17 48.61380 18.86517 28196 ft 177 kts 329°
2026-04-28 20:17 48.62545 18.85902 28195 ft 177 kts 329°
2026-04-28 20:17 48.63710 18.85287 28196 ft 177 kts 329°
2026-04-28 20:17 48.64875 18.84673 28191 ft 177 kts 329°
2026-04-28 20:18 48.66042 18.84057 28198 ft 178 kts 329°
2026-04-28 20:18 48.66815 18.83648 28196 ft 178 kts 329°
2026-04-28 20:18 48.68352 18.82837 28197 ft 176 kts 329°
2026-04-28 20:18 48.69511 18.82224 28198 ft 176 kts 329°
2026-04-28 20:19 48.70669 18.81611 28201 ft 176 kts 329°
2026-04-28 20:19 48.71820 18.81002 28210 ft 175 kts 329°
2026-04-28 20:19 48.72976 18.80388 28209 ft 177 kts 329°
2026-04-28 20:19 48.74143 18.79770 28204 ft 177 kts 329°
2026-04-28 20:20 48.75307 18.79154 28206 ft 177 kts 329°
2026-04-28 20:20 48.76473 18.78536 28209 ft 177 kts 329°
2026-04-28 20:20 48.77625 18.77924 28203 ft 177 kts 329°
2026-04-28 20:20 48.78788 18.77307 28217 ft 177 kts 329°
2026-04-28 20:21 48.79957 18.76686 28212 ft 177 kts 329°
2026-04-28 20:21 48.81120 18.76069 28215 ft 177 kts 329°
2026-04-28 20:21 48.82279 18.75453 28211 ft 176 kts 329°
2026-04-28 20:21 48.83435 18.74837 28226 ft 176 kts 329°
2026-04-28 20:22 48.84599 18.74218 28216 ft 176 kts 329°
2026-04-28 20:22 48.85736 18.73612 28210 ft 176 kts 329°
2026-04-28 20:22 48.86894 18.72996 28213 ft 176 kts 329°
2026-04-28 20:22 48.88048 18.72381 28225 ft 176 kts 329°
2026-04-28 20:23 48.89203 18.71765 28230 ft 175 kts 329°
2026-04-28 20:23 48.90353 18.71151 28230 ft 175 kts 329°
2026-04-28 20:23 48.91511 18.70533 28220 ft 175 kts 329°
2026-04-28 20:23 48.92661 18.69919 28232 ft 175 kts 330°
2026-04-28 20:24 48.93818 18.69300 28236 ft 176 kts 330°
2026-04-28 20:24 48.94978 18.68680 28225 ft 177 kts 330°
2026-04-28 20:24 48.96123 18.68069 28233 ft 176 kts 330°
2026-04-28 20:24 48.97295 18.67441 28232 ft 177 kts 330°
2026-04-28 20:25 48.98453 18.66822 28235 ft 177 kts 331°
2026-04-28 20:25 48.99602 18.66207 28237 ft 177 kts 330°
2026-04-28 20:25 49.00785 18.65573 28236 ft 178 kts 330°
2026-04-28 20:25 49.01939 18.64954 28236 ft 179 kts 330°
2026-04-28 20:26 49.03114 18.64324 28234 ft 179 kts 330°
2026-04-28 20:26 49.04297 18.63690 28239 ft 179 kts 330°
2026-04-28 20:26 49.05469 18.63061 28245 ft 179 kts 330°
2026-04-28 20:26 49.06640 18.62432 28236 ft 178 kts 330°
2026-04-28 20:27 49.07810 18.61803 28245 ft 178 kts 330°
2026-04-28 20:27 49.08979 18.61174 28246 ft 177 kts 330°
2026-04-28 20:27 49.10124 18.60559 28245 ft 177 kts 330°
2026-04-28 20:27 49.11302 18.59924 28247 ft 177 kts 330°
2026-04-28 20:28 49.12447 18.59307 28248 ft 178 kts 330°
2026-04-28 20:28 49.13621 18.58674 28245 ft 178 kts 330°
2026-04-28 20:28 49.14784 18.58048 28244 ft 177 kts 330°
2026-04-28 20:28 49.15942 18.57423 28246 ft 177 kts 330°
2026-04-28 20:29 49.17102 18.56797 28240 ft 176 kts 330°
2026-04-28 20:29 49.18251 18.56177 28246 ft 176 kts 330°
2026-04-28 20:29 49.19412 18.55549 28246 ft 176 kts 330°
2026-04-28 20:29 49.20568 18.54925 28242 ft 177 kts 330°
2026-04-28 20:30 49.21737 18.54293 28246 ft 177 kts 331°
2026-04-28 20:30 49.22901 18.53664 28243 ft 177 kts 331°
2026-04-28 20:30 49.24049 18.53042 28246 ft 177 kts 331°
2026-04-28 20:30 49.25216 18.52410 28244 ft 178 kts 331°
2026-04-28 20:31 49.26380 18.51780 28245 ft 178 kts 331°
2026-04-28 20:31 49.27564 18.51138 28249 ft 178 kts 331°
2026-04-28 20:31 49.28715 18.50514 28248 ft 178 kts 331°
2026-04-28 20:31 49.29885 18.49879 28243 ft 179 kts 331°
2026-04-28 20:32 49.31058 18.49242 28251 ft 179 kts 331°
2026-04-28 20:32 49.32232 18.48604 28245 ft 179 kts 331°
2026-04-28 20:32 49.33408 18.47966 28244 ft 179 kts 331°
2026-04-28 20:32 49.34584 18.47327 28247 ft 179 kts 331°
2026-04-28 20:33 49.35752 18.46692 28241 ft 178 kts 332°
2026-04-28 20:33 49.36921 18.46055 28248 ft 178 kts 331°
2026-04-28 20:33 49.38081 18.45424 28251 ft 177 kts 331°
2026-04-28 20:33 49.39233 18.44795 28252 ft 177 kts 330°
2026-04-28 20:34 49.40337 18.44025 28252 ft 175 kts 327°
2026-04-28 20:34 49.41447 18.43251 28253 ft 175 kts 328°
2026-04-28 20:34 49.42554 18.42485 28253 ft 174 kts 327°
2026-04-28 20:34 49.43655 18.41716 28251 ft 174 kts 328°
2026-04-28 20:35 49.44761 18.40941 28254 ft 173 kts 327°
2026-04-28 20:35 49.45858 18.40172 28253 ft 174 kts 328°
2026-04-28 20:35 49.46960 18.39398 28259 ft 174 kts 327°
2026-04-28 20:35 49.48066 18.38622 28263 ft 174 kts 328°
2026-04-28 20:36 49.49168 18.37849 28261 ft 174 kts 327°
2026-04-28 20:36 49.50250 18.37090 28256 ft 172 kts 328°
2026-04-28 20:36 49.51353 18.36314 28272 ft 173 kts 328°
2026-04-28 20:36 49.52444 18.35545 28271 ft 175 kts 328°
2026-04-28 20:37 49.53561 18.34759 28271 ft 176 kts 328°
2026-04-28 20:37 49.54677 18.33974 28269 ft 177 kts 328°
2026-04-28 20:37 49.55797 18.33186 28271 ft 177 kts 328°
2026-04-28 20:37 49.56912 18.32401 28268 ft 176 kts 328°
2026-04-28 20:38 49.58020 18.31620 28263 ft 174 kts 328°
2026-04-28 20:38 49.58747 18.31108 28273 ft 174 kts 328°
2026-04-28 20:38 49.59872 18.30312 28272 ft 176 kts 328°
2026-04-28 20:38 49.60972 18.29535 28272 ft 176 kts 328°
2026-04-28 20:39 49.62083 18.28751 28273 ft 176 kts 328°
2026-04-28 20:39 49.63203 18.27960 28271 ft 176 kts 328°
2026-04-28 20:39 49.64313 18.27175 28271 ft 176 kts 328°
2026-04-28 20:39 49.65427 18.26387 28274 ft 177 kts 328°
2026-04-28 20:40 49.66552 18.25590 28273 ft 177 kts 328°
2026-04-28 20:40 49.67676 18.24795 28275 ft 178 kts 328°
2026-04-28 20:40 49.68799 18.24000 28273 ft 178 kts 328°
2026-04-28 20:40 49.69915 18.23208 28272 ft 178 kts 328°
2026-04-28 20:41 49.71043 18.22408 28273 ft 178 kts 328°
2026-04-28 20:41 49.72175 18.21605 28275 ft 179 kts 328°
2026-04-28 20:41 49.73302 18.20805 28273 ft 179 kts 328°
2026-04-28 20:41 49.74436 18.19999 28274 ft 179 kts 328°
2026-04-28 20:42 49.75567 18.19196 28274 ft 179 kts 328°
2026-04-28 20:42 49.76701 18.18389 28273 ft 179 kts 328°
2026-04-28 20:42 49.77834 18.17584 28274 ft 179 kts 328°
2026-04-28 20:42 49.78962 18.16781 28275 ft 179 kts 328°
2026-04-28 20:43 49.80094 18.15975 28273 ft 179 kts 328°
2026-04-28 20:43 49.81221 18.15171 28277 ft 179 kts 328°
2026-04-28 20:43 49.82355 18.14363 28276 ft 179 kts 328°
2026-04-28 20:43 49.83489 18.13554 28276 ft 179 kts 328°
2026-04-28 20:44 49.84606 18.12758 28278 ft 179 kts 328°
2026-04-28 20:44 49.85736 18.11950 28278 ft 179 kts 328°
2026-04-28 20:44 49.86872 18.11139 28277 ft 179 kts 328°
2026-04-28 20:44 49.88005 18.10329 28280 ft 179 kts 328°
2026-04-28 20:45 49.89147 18.09512 28279 ft 180 kts 328°
2026-04-28 20:45 49.90283 18.08700 28276 ft 180 kts 328°
2026-04-28 20:45 49.91418 18.07887 28279 ft 180 kts 328°
2026-04-28 20:45 49.92558 18.07071 28281 ft 180 kts 328°
2026-04-28 20:46 49.93672 18.06272 28280 ft 180 kts 328°
2026-04-28 20:46 49.94816 18.05452 28283 ft 180 kts 328°
2026-04-28 20:46 49.95950 18.04639 28284 ft 180 kts 328°
2026-04-28 20:46 49.97086 18.03824 28287 ft 180 kts 328°
2026-04-28 20:47 49.98227 18.03004 28286 ft 180 kts 328°
2026-04-28 20:47 49.99360 18.02190 28288 ft 180 kts 328°
2026-04-28 20:47 50.00496 18.01374 28295 ft 180 kts 328°
2026-04-28 20:47 50.01632 18.00556 28292 ft 180 kts 328°
2026-04-28 20:48 50.02768 17.99740 28296 ft 180 kts 328°
2026-04-28 20:48 50.03961 17.99163 28297 ft 183 kts 337°
2026-04-28 20:48 50.05203 17.98689 28298 ft 184 kts 337°
2026-04-28 20:48 50.06444 17.98207 28296 ft 184 kts 337°
2026-04-28 20:49 50.07697 17.97714 28300 ft 184 kts 337°
2026-04-28 20:49 50.08937 17.97225 28298 ft 184 kts 337°
2026-04-28 20:49 50.10164 17.96742 28299 ft 184 kts 337°
2026-04-28 20:49 50.11410 17.96251 28302 ft 184 kts 337°
2026-04-28 20:50 50.12657 17.95759 28302 ft 185 kts 337°
2026-04-28 20:50 50.13900 17.95269 28304 ft 185 kts 337°
2026-04-28 20:50 50.15148 17.94776 28302 ft 184 kts 337°
2026-04-28 20:50 50.16394 17.94284 28308 ft 185 kts 337°
2026-04-28 20:51 50.17637 17.93792 28308 ft 184 kts 337°
2026-04-28 20:51 50.18880 17.93301 28305 ft 184 kts 337°
2026-04-28 20:51 50.20103 17.92817 28305 ft 184 kts 337°
2026-04-28 20:51 50.21369 17.92316 28305 ft 184 kts 337°
2026-04-28 20:52 50.22610 17.91824 28305 ft 184 kts 337°
2026-04-28 20:52 50.23853 17.91332 28308 ft 184 kts 337°
2026-04-28 20:52 50.25083 17.90844 28307 ft 184 kts 337°
2026-04-28 20:52 50.26330 17.90349 28310 ft 184 kts 337°
2026-04-28 20:53 50.28822 17.89359 28308 ft 184 kts 337°
2026-04-28 20:53 50.30063 17.88866 28311 ft 184 kts 337°
2026-04-28 20:53 50.31305 17.88372 28312 ft 184 kts 337°
2026-04-28 20:54 50.32547 17.87878 28314 ft 184 kts 337°
2026-04-28 20:54 50.33779 17.87388 28312 ft 184 kts 337°
2026-04-28 20:54 50.35020 17.86893 28314 ft 184 kts 337°
2026-04-28 20:54 50.36266 17.86397 28312 ft 185 kts 337°
2026-04-28 20:55 50.37507 17.85902 28308 ft 185 kts 337°
2026-04-28 20:55 50.38755 17.85405 28310 ft 184 kts 337°
2026-04-28 20:55 50.40000 17.84908 28312 ft 184 kts 337°
2026-04-28 20:55 50.41241 17.84413 28313 ft 184 kts 337°
2026-04-28 20:56 50.42481 17.83917 28314 ft 184 kts 337°
2026-04-28 20:56 50.43723 17.83421 28311 ft 184 kts 337°
2026-04-28 20:56 50.44964 17.82924 28316 ft 184 kts 337°
2026-04-28 20:56 50.46209 17.82426 28310 ft 184 kts 337°
2026-04-28 20:57 50.47447 17.81931 28314 ft 184 kts 337°
2026-04-28 20:57 50.48692 17.81432 28310 ft 184 kts 337°
2026-04-28 20:57 50.49930 17.80936 28315 ft 184 kts 338°
2026-04-28 20:57 50.51168 17.80440 28321 ft 184 kts 338°
2026-04-28 20:58 50.52406 17.79943 28317 ft 184 kts 338°
2026-04-28 20:58 50.53631 17.79451 28315 ft 184 kts 338°
2026-04-28 20:58 50.54869 17.78954 28320 ft 184 kts 338°
2026-04-28 20:58 50.56108 17.78456 28319 ft 184 kts 338°
2026-04-28 20:59 50.57347 17.77958 28317 ft 184 kts 338°
2026-04-28 20:59 50.58587 17.77459 28322 ft 184 kts 338°
2026-04-28 20:59 50.59827 17.76960 28317 ft 184 kts 338°
2026-04-28 20:59 50.61051 17.76467 28326 ft 184 kts 338°
2026-04-28 21:00 50.62293 17.75966 28326 ft 184 kts 338°
2026-04-28 21:00 50.63540 17.75464 28325 ft 184 kts 338°
2026-04-28 21:00 50.64779 17.74964 28327 ft 184 kts 338°
2026-04-28 21:00 50.66025 17.74461 28324 ft 185 kts 338°
2026-04-28 21:01 50.67269 17.73958 28321 ft 185 kts 338°
2026-04-28 21:01 50.68518 17.73454 28322 ft 185 kts 338°
2026-04-28 21:01 50.69750 17.72956 28324 ft 185 kts 338°
2026-04-28 21:01 50.71014 17.72445 28325 ft 185 kts 338°
2026-04-28 21:02 50.72245 17.71946 28325 ft 185 kts 338°
2026-04-28 21:02 50.73493 17.71441 28324 ft 185 kts 338°
2026-04-28 21:02 50.74741 17.70935 28328 ft 185 kts 338°
2026-04-28 21:02 50.75992 17.70428 28324 ft 185 kts 339°
2026-04-28 21:03 50.77241 17.69922 28326 ft 185 kts 339°
2026-04-28 21:03 50.78485 17.69417 28328 ft 185 kts 339°
2026-04-28 21:03 50.79736 17.68909 28332 ft 185 kts 339°
2026-04-28 21:03 50.80964 17.68410 28316 ft 185 kts 339°
2026-04-28 21:04 50.82211 17.67904 28318 ft 185 kts 339°
2026-04-28 21:04 50.83457 17.67397 28318 ft 185 kts 339°
2026-04-28 21:04 50.84705 17.66889 28324 ft 185 kts 339°
2026-04-28 21:04 50.85953 17.66381 28326 ft 185 kts 339°
2026-04-28 21:05 50.87201 17.65872 28328 ft 185 kts 339°
2026-04-28 21:05 50.88445 17.65365 28328 ft 185 kts 339°
2026-04-28 21:05 50.89697 17.64854 28329 ft 186 kts 339°
2026-04-28 21:05 50.90949 17.64344 28329 ft 186 kts 339°
2026-04-28 21:06 50.92204 17.63831 28328 ft 186 kts 339°
2026-04-28 21:06 50.93457 17.63319 28329 ft 186 kts 339°
2026-04-28 21:06 50.94711 17.62807 28327 ft 186 kts 339°
2026-04-28 21:06 50.95966 17.62293 28329 ft 186 kts 339°
2026-04-28 21:07 50.97221 17.61780 28329 ft 186 kts 339°
2026-04-28 21:07 50.98476 17.61266 28329 ft 186 kts 339°
2026-04-28 21:07 50.99735 17.60750 28329 ft 186 kts 339°
2026-04-28 21:07 51.00991 17.60236 28330 ft 187 kts 339°
2026-04-28 21:08 51.02234 17.59726 28331 ft 186 kts 339°
2026-04-28 21:08 51.03493 17.59209 28328 ft 186 kts 339°
2026-04-28 21:08 51.04751 17.58692 28331 ft 186 kts 339°
2026-04-28 21:08 51.06013 17.58174 28334 ft 187 kts 339°
2026-04-28 21:09 51.07265 17.57659 28333 ft 187 kts 339°
2026-04-28 21:09 51.08528 17.57140 28333 ft 187 kts 339°
2026-04-28 21:09 51.09766 17.56563 28334 ft 185 kts 338°
2026-04-28 21:09 51.11012 17.56013 28334 ft 186 kts 339°
2026-04-28 21:10 51.12265 17.55471 28335 ft 186 kts 339°
2026-04-28 21:10 51.13513 17.54912 28334 ft 186 kts 339°
2026-04-28 21:10 51.14762 17.54348 28335 ft 187 kts 339°
2026-04-28 21:10 51.15998 17.53791 28335 ft 187 kts 339°
2026-04-28 21:11 51.17248 17.53227 28335 ft 187 kts 339°
2026-04-28 21:11 51.18498 17.52663 28337 ft 187 kts 339°
2026-04-28 21:11 51.19750 17.52097 28337 ft 187 kts 339°
2026-04-28 21:11 51.21006 17.51529 28336 ft 187 kts 339°
2026-04-28 21:12 51.22261 17.50962 28335 ft 187 kts 339°
2026-04-28 21:12 51.23518 17.50393 28336 ft 187 kts 339°
2026-04-28 21:12 51.24772 17.49826 28333 ft 188 kts 339°
2026-04-28 21:12 51.26029 17.49256 28338 ft 188 kts 339°
2026-04-28 21:13 51.27279 17.48690 28338 ft 188 kts 339°
2026-04-28 21:13 51.28539 17.48119 28337 ft 188 kts 339°
2026-04-28 21:13 51.29799 17.47547 28336 ft 188 kts 339°
2026-04-28 21:13 51.31056 17.46976 28335 ft 188 kts 339°
2026-04-28 21:14 51.32311 17.46406 28341 ft 188 kts 339°
2026-04-28 21:14 51.33558 17.45839 28340 ft 188 kts 339°
2026-04-28 21:14 51.34818 17.45267 28341 ft 188 kts 339°
2026-04-28 21:14 51.36072 17.44696 28340 ft 188 kts 339°
2026-04-28 21:15 51.37333 17.44122 28339 ft 188 kts 339°
2026-04-28 21:15 51.38591 17.43549 28338 ft 188 kts 339°
2026-04-28 21:15 51.39861 17.42970 28339 ft 188 kts 339°
2026-04-28 21:15 51.41119 17.42397 28338 ft 188 kts 339°
2026-04-28 21:16 51.42378 17.41822 28342 ft 188 kts 339°
2026-04-28 21:16 51.43641 17.41245 28343 ft 188 kts 339°
2026-04-28 21:16 51.44898 17.40671 28341 ft 188 kts 339°
2026-04-28 21:16 51.46160 17.40094 28338 ft 188 kts 339°
2026-04-28 21:17 51.47414 17.39520 28340 ft 188 kts 339°
2026-04-28 21:17 51.48674 17.38944 28347 ft 188 kts 339°
2026-04-28 21:17 51.49922 17.38373 28346 ft 188 kts 339°
2026-04-28 21:17 51.51176 17.37798 28348 ft 188 kts 339°
2026-04-28 21:18 51.52431 17.37223 28350 ft 188 kts 340°
2026-04-28 21:18 51.53709 17.36634 28104 ft 197 kts 340°
2026-04-28 21:18 51.55074 17.36006 27760 ft 208 kts 340°
2026-04-28 21:18 51.56495 17.35355 27418 ft 215 kts 340°
2026-04-28 21:19 51.57951 17.34688 27077 ft 220 kts 341°
2026-04-28 21:19 51.59439 17.34005 26738 ft 224 kts 341°
2026-04-28 21:19 51.60947 17.33312 26404 ft 226 kts 341°
2026-04-28 21:19 51.62469 17.32611 26076 ft 228 kts 341°
2026-04-28 21:20 51.63997 17.31907 25748 ft 229 kts 341°
2026-04-28 21:20 51.65528 17.31201 25430 ft 229 kts 341°
2026-04-28 21:20 51.67067 17.30491 25109 ft 229 kts 341°
2026-04-28 21:20 51.68606 17.29780 24788 ft 229 kts 341°
2026-04-28 21:21 51.70136 17.29074 24472 ft 227 kts 342°
2026-04-28 21:21 51.71613 17.28393 24168 ft 220 kts 342°
2026-04-28 21:21 51.73055 17.27728 23844 ft 210 kts 341°
2026-04-28 21:21 51.74431 17.27093 23472 ft 199 kts 341°
2026-04-28 21:22 51.75722 17.26496 23103 ft 187 kts 341°
2026-04-28 21:22 51.76946 17.25929 22744 ft 178 kts 341°
2026-04-28 21:22 51.78104 17.25391 22388 ft 171 kts 341°
2026-04-28 21:22 51.78868 17.25036 22161 ft 166 kts 341°
2026-04-28 21:23 51.80308 17.24367 21686 ft 159 kts 341°
2026-04-28 21:23 51.81008 17.24042 21458 ft 156 kts 341°
2026-04-28 21:23 51.82071 17.23544 21122 ft 161 kts 341°
2026-04-28 21:23 51.83135 17.23050 20786 ft 159 kts 341°
2026-04-28 21:24 51.84204 17.22560 20459 ft 163 kts 341°
2026-04-28 21:24 51.85339 17.22040 20138 ft 175 kts 342°
2026-04-28 21:24 51.86540 17.21492 19800 ft 183 kts 342°
2026-04-28 21:24 51.87786 17.20924 19498 ft 187 kts 342°
2026-04-28 21:25 51.89025 17.20362 19181 ft 181 kts 342°
2026-04-28 21:25 51.90201 17.19828 18870 ft 172 kts 342°
2026-04-28 21:25 51.91317 17.19320 18543 ft 161 kts 342°
2026-04-28 21:25 51.92375 17.18835 18179 ft 160 kts 341°
2026-04-28 21:26 51.93507 17.18308 17826 ft 173 kts 342°
2026-04-28 21:26 51.94676 17.17770 17491 ft 181 kts 342°
2026-04-28 21:26 51.95823 17.16885 17149 ft 185 kts 325°
2026-04-28 21:26 51.96877 17.15645 16810 ft 189 kts 325°
2026-04-28 21:27 51.97958 17.14395 16474 ft 193 kts 326°
2026-04-28 21:27 51.99055 17.13133 16137 ft 193 kts 326°
2026-04-28 21:27 52.00144 17.11877 15808 ft 191 kts 326°
2026-04-28 21:27 52.01221 17.10631 15470 ft 189 kts 326°
2026-04-28 21:28 52.02286 17.09398 15156 ft 187 kts 326°
2026-04-28 21:28 52.03346 17.08171 14831 ft 186 kts 326°
2026-04-28 21:28 52.04394 17.06957 14517 ft 185 kts 326°
2026-04-28 21:28 52.05438 17.05747 14197 ft 183 kts 326°
2026-04-28 21:29 52.06470 17.04549 13849 ft 182 kts 326°
2026-04-28 21:29 52.07499 17.03355 13494 ft 181 kts 326°
2026-04-28 21:29 52.08524 17.02165 13146 ft 181 kts 326°
2026-04-28 21:29 52.09543 17.00981 12804 ft 180 kts 327°
2026-04-28 21:30 52.10564 16.99794 12459 ft 180 kts 327°
2026-04-28 21:30 52.11572 16.98621 12122 ft 180 kts 327°
2026-04-28 21:30 52.12576 16.97452 11797 ft 179 kts 327°
2026-04-28 21:30 52.13593 16.96268 11463 ft 179 kts 327°
2026-04-28 21:31 52.14606 16.95087 11136 ft 179 kts 327°
2026-04-28 21:31 52.15616 16.93910 10812 ft 178 kts 327°
2026-04-28 21:31 52.16623 16.92735 10493 ft 178 kts 327°
2026-04-28 21:31 52.17633 16.91556 10166 ft 178 kts 327°
2026-04-28 21:32 52.18640 16.90380 9834 ft 177 kts 327°
2026-04-28 21:32 52.19634 16.89218 9557 ft 174 kts 326°
2026-04-28 21:32 52.20588 16.88059 9281 ft 167 kts 320°
2026-04-28 21:32 52.21231 16.86527 9029 ft 161 kts 296°
2026-04-28 21:33 52.21572 16.84760 9008 ft 166 kts 292°
2026-04-28 21:33 52.21932 16.82937 9008 ft 172 kts 292°
2026-04-28 21:33 52.22321 16.80987 9008 ft 191 kts 292°
2026-04-28 21:33 52.22749 16.78818 9006 ft 209 kts 292°
2026-04-28 21:34 52.23194 16.76532 9005 ft 218 kts 291°
2026-04-28 21:34 52.23656 16.74150 9008 ft 222 kts 291°
2026-04-28 21:34 52.24125 16.71732 9007 ft 225 kts 291°
2026-04-28 21:34 52.24600 16.69285 9006 ft 226 kts 291°
2026-04-28 21:35 52.25077 16.66828 9006 ft 227 kts 291°
2026-04-28 21:35 52.25553 16.64368 9004 ft 227 kts 291°
2026-04-28 21:35 52.26031 16.61897 9004 ft 228 kts 291°
2026-04-28 21:35 52.26506 16.59434 9005 ft 228 kts 291°
2026-04-28 21:36 52.26980 16.56971 9005 ft 228 kts 291°
2026-04-28 21:36 52.27453 16.54499 9017 ft 228 kts 291°
2026-04-28 21:36 52.27926 16.52023 9016 ft 228 kts 291°
2026-04-28 21:36 52.28568 16.49697 9012 ft 223 kts 306°
2026-04-28 21:37 52.29605 16.47893 9007 ft 204 kts 324°
2026-04-28 21:37 52.30736 16.46839 8759 ft 178 kts 338°
2026-04-28 21:37 52.31885 16.46360 8402 ft 165 kts 351°
2026-04-28 21:37 52.32993 16.46349 8066 ft 158 kts
2026-04-28 21:38 52.34045 16.46743 7726 ft 153 kts 14°
2026-04-28 21:38 52.35053 16.47265 7395 ft 151 kts 13°
2026-04-28 21:38 52.36057 16.47772 7060 ft 151 kts 13°
2026-04-28 21:38 52.37071 16.48277 6738 ft 151 kts 10°
2026-04-28 21:39 52.38103 16.48241 6400 ft 149 kts 341°
2026-04-28 21:39 52.38994 16.47403 6078 ft 151 kts 316°
2026-04-28 21:39 52.39551 16.45923 5748 ft 156 kts 290°
2026-04-28 21:39 52.39868 16.44204 5413 ft 159 kts 289°
2026-04-28 21:40 52.40196 16.42467 5077 ft 161 kts 290°
2026-04-28 21:40 52.40531 16.40713 4731 ft 162 kts 290°
2026-04-28 21:40 52.40939 16.39000 4378 ft 161 kts 306°
2026-04-28 21:40 52.41723 16.37764 4147 ft 154 kts 332°
2026-04-28 21:41 52.42693 16.37225 3937 ft 149 kts 356°
2026-04-28 21:41 52.43701 16.37390 3742 ft 143 kts 19°
2026-04-28 21:41 52.44635 16.37878 3614 ft 140 kts 20°
2026-04-28 21:41 52.45566 16.38348 3482 ft 139 kts 20°
2026-04-28 21:42 52.46487 16.38814 3352 ft 139 kts 20°
2026-04-28 21:42 52.47409 16.39282 3224 ft 139 kts 21°
2026-04-28 21:42 52.48334 16.39752 3090 ft 138 kts 21°
2026-04-28 21:42 52.49159 16.40472 2960 ft 134 kts 46°
2026-04-28 21:43 52.49634 16.41765 2823 ft 133 kts 73°
2026-04-28 21:43 52.49644 16.43282 2696 ft 135 kts 101°
2026-04-28 21:43 52.49365 16.44733 2568 ft 135 kts 103°
2026-04-28 21:43 52.49086 16.46194 2464 ft 133 kts 103°
2026-04-28 21:44 52.48810 16.47648 2390 ft 133 kts 103°
2026-04-28 21:44 52.48531 16.49113 2309 ft 133 kts 103°
2026-04-28 21:44 52.48258 16.50549 2231 ft 132 kts 104°
2026-04-28 21:44 52.47989 16.51965 2155 ft 131 kts 104°
2026-04-28 21:45 52.47720 16.53387 2071 ft 130 kts 104°
2026-04-28 21:45 52.47451 16.54813 2028 ft 136 kts 104°
2026-04-28 21:45 52.47154 16.56384 2024 ft 151 kts 104°
2026-04-28 21:45 52.46830 16.58074 2028 ft 159 kts 104°
2026-04-28 21:46 52.46490 16.59844 2034 ft 166 kts 104°
2026-04-28 21:46 52.46138 16.61675 2025 ft 170 kts 105°
2026-04-28 21:46 52.45779 16.63548 2025 ft 173 kts 105°
2026-04-28 21:46 52.45428 16.65354 2017 ft 152 kts 105°
2026-04-28 21:47 52.45139 16.66829 2013 ft 117 kts 104°
2026-04-28 21:47 52.44925 16.67950 2013 ft 101 kts 103°
2026-04-28 21:47 52.44716 16.69068 2021 ft 104 kts 103°
2026-04-28 21:47 52.44514 16.70135 1989 ft 91 kts 103°
2026-04-28 21:48 52.44324 16.71084 1805 ft 87 kts 104°
2026-04-28 21:48 52.44126 16.72031 1581 ft 88 kts 104°
2026-04-28 21:48 52.43938 16.72984 1370 ft 87 kts 103°
2026-04-28 21:48 52.43767 16.73937 1145 ft 87 kts 102°
2026-04-28 21:49 52.43600 16.74865 1032 ft 83 kts 104°
2026-04-28 21:49 52.43427 16.75757 1001 ft 77 kts 104°
2026-04-28 21:49 52.43259 16.76619 929 ft 81 kts 104°
2026-04-28 21:49 52.43093 16.77518 782 ft 83 kts 103°
2026-04-28 21:50 52.42923 16.78419 607 ft 82 kts 104°
2026-04-28 21:50 52.42751 16.79289 486 ft 79 kts 103°
2026-04-28 21:50 52.42588 16.80134 383 ft 77 kts 104°
2026-04-28 21:50 52.42428 16.80950 301 ft 67 kts 104°
2026-04-28 21:51 52.42314 16.81561 285 ft 46 kts 104°
2026-04-28 21:51 52.42227 16.81996 286 ft 35 kts 105°
2026-04-28 21:51 52.42157 16.82355 286 ft 31 kts 109°
2026-04-28 21:51 52.42094 16.82686 284 ft 28 kts 106°
2026-04-28 21:52 52.42044 16.82932 282 ft 17 kts 111°
2026-04-28 21:52 52.41964 16.82975 284 ft 16 kts 197°
2026-04-28 21:52 52.41872 16.82957 284 ft 12 kts 134°
2026-04-28 21:52 52.41859 16.83003 284 ft 0 kts 107°
2026-04-28 21:53 52.41858 16.83012 284 ft 3 kts 105°
2026-04-28 21:54 52.41842 16.83098 284 ft 12 kts 108°
2026-04-28 21:54 52.41811 16.83254 284 ft 15 kts 108°
2026-04-28 21:54 52.41779 16.83419 284 ft 15 kts 108°
2026-04-28 21:54 52.41748 16.83579 284 ft 15 kts 108°
2026-04-28 21:55 52.41717 16.83736 284 ft 14 kts 108°
2026-04-28 21:55 52.41688 16.83889 284 ft 14 kts 107°
2026-04-28 21:55 52.41678 16.84001 284 ft 7 kts 58°
2026-04-28 21:55 52.41728 16.84039 285 ft 9 kts 20°
2026-04-28 21:56 52.41792 16.84077 285 ft 10 kts 20°
2026-04-28 21:56 52.41864 16.84118 286 ft 12 kts 17°
2026-04-28 21:56 52.41950 16.84157 285 ft 14 kts 15°
2026-04-28 21:56 52.42049 16.84170 285 ft 15 kts
2026-04-28 21:57 52.42156 16.84181 285 ft 15 kts
2026-04-28 21:57 52.42267 16.84193 285 ft 16 kts
2026-04-28 21:57 52.42374 16.84203 285 ft 15 kts
2026-04-28 21:57 52.42434 16.84209 285 ft 6 kts
2026-04-28 21:58 52.42477 16.84243 285 ft 7 kts 47°
2026-04-28 21:58 52.42469 16.84283 285 ft 3 kts 163°
2026-04-28 21:58 52.42448 16.84265 285 ft 2 kts 221°
2026-04-28 21:58 52.42443 16.84261 285 ft 1 kts 199°
2026-04-28 21:59 52.42439 16.84259 285 ft 0 kts 187°
2026-04-28 21:59 52.42432 16.84260 285 ft 3 kts 165°
2026-04-28 21:59 52.42427 16.84264 285 ft 0 kts 144°
2026-04-28 22:00 52.42431 16.84262 285 ft 0 kts 131°
2026-04-28 22:00 52.42448 16.84253 285 ft 1 kts 197°
2026-04-28 22:00 52.42451 16.84255 285 ft 0 kts 201°
2026-04-28 22:00 52.42440 16.84255 285 ft 1 kts 157°
2026-04-28 22:01 52.42431 16.84281 285 ft 4 kts 83°
2026-04-28 22:01 52.42457 16.84307 285 ft 6 kts 341°
2026-04-28 22:01 52.42457 16.84261 285 ft 6 kts 200°
2026-04-28 22:01 52.42448 16.84316 285 ft 8 kts 28°
2026-04-28 22:02 52.42461 16.84273 285 ft 5 kts 208°
2026-04-28 22:02 52.42442 16.84263 285 ft 1 kts 204°
2026-04-28 22:02 52.42440 16.84261 285 ft 0 kts 203°